Weather History for Decatur, IL

Change the Weather History Date:

Saturday, November 9, 2013

  Actual Average Record
Temperature  
Mean Temperature 55 °F 46 °F  
Max Temperature 65 °F 55 °F 75 °F (2006)
Min Temperature 44 °F 37 °F 21 °F (2003)
Degree Days  
Heating Degree Days 10 19  
Month to date heating degree days 159 157  
Since 1 July heating degree days 548 575  
Cooling Degree Days 0 0  
Month to date cooling degree days 0 0  
Year to date cooling degree days 1079 1048  
Growing Degree Days 4 (Base 50)    
Moisture  
Dew Point 35 °F    
Average Humidity 52    
Maximum Humidity 70    
Minimum Humidity 34    
Precipitation  
Precipitation 0.00 in 0.11 in 0.07 in (2011)
Month to date precipitation 0.33 0.97  
Year to date precipitation 31.28 33.45  
Sea Level Pressure  
Sea Level Pressure 30.08 in    
Wind  
Wind Speed 13 mph (WSW)    
Max Wind Speed 23 mph    
Max Gust Speed 28 mph    
Visibility 10 miles    
Events      
T = Trace of Precipitation, MM = Missing Value Source: NWS Daily Summary

Daily Weather History Graph

Daily Weather History Graph

Search for Another Location

Airport:

Trip Planner

Search our weather history database for the weather conditions in past years. The results will help you decide how hot, cold, wet, or windy it might be!

Date:

Astronomy

Nov. 09, 2013 Rise Set
Actual Time 6:33 AM CST 4:44 PM CST
Civil Twilight 6:05 AM CST 5:13 PM CST
Nautical Twilight 5:32 AM CST 5:45 PM CST
Astronomical Twilight 5:00 AM CST 6:17 PM CST
Moon 12:10 PM CST (11/9) 11:14 PM CST (11/9)
Length of Visible Light 11h 07m
Length of Day
10h 10m
Waxing Crescent, 44% of the Moon is Illuminated
Nov 9
Waxing Crescent
Nov 9
First Quarter
Nov 17
Full
Nov 25
Last Quarter
Dec 2
New

Hourly Weather History & Observations

Time (CST) Temp. Windchill Dew Point Humidity Pressure Visibility Wind Dir Wind Speed Gust Speed Precip Events Conditions
12:54 AM 46.0 °F 39.6 °F 30.9 °F 56% 30.08 in 10.0 mi South 15.0 mph 24.2 mph N/A   Clear
1:54 AM 46.0 °F 39.0 °F 32.0 °F 58% 30.05 in 10.0 mi SSW 17.3 mph 24.2 mph N/A   Clear
2:54 AM 46.0 °F 39.3 °F 32.0 °F 58% 30.03 in 10.0 mi SSW 16.1 mph 24.2 mph N/A   Clear
3:54 AM 46.9 °F - 33.1 °F 59% 30.02 in 10.0 mi SSW 16.1 mph 26.5 mph N/A   Clear
4:54 AM 46.0 °F 39.0 °F 34.0 °F 63% 30.02 in 10.0 mi SSW 17.3 mph 24.2 mph N/A   Clear
5:54 AM 45.0 °F 38.5 °F 34.0 °F 65% 30.04 in 10.0 mi SSW 13.8 mph - N/A   Clear
6:54 AM 44.1 °F 38.1 °F 35.1 °F 71% 30.05 in 10.0 mi SW 11.5 mph - N/A   Clear
7:54 AM 48.0 °F - 36.0 °F 63% 30.06 in 10.0 mi SW 13.8 mph - N/A   Clear
8:54 AM 52.0 °F - 37.0 °F 57% 30.06 in 10.0 mi WSW 16.1 mph 25.3 mph N/A   Clear
9:54 AM 55.0 °F - 39.0 °F 55% 30.06 in 10.0 mi WSW 16.1 mph 23.0 mph N/A   Clear
10:54 AM 57.9 °F - 39.9 °F 51% 30.06 in 10.0 mi WSW 15.0 mph 27.6 mph N/A   Clear
11:54 AM 60.1 °F - 39.9 °F 47% 30.04 in 10.0 mi WSW 17.3 mph 23.0 mph N/A   Clear
12:54 PM 63.0 °F - 39.0 °F 41% 30.02 in 10.0 mi West 15.0 mph 23.0 mph N/A   Clear
1:54 PM 64.0 °F - 39.0 °F 40% 30.03 in 10.0 mi West 11.5 mph 25.3 mph N/A   Clear
2:54 PM 64.0 °F - 37.0 °F 37% 30.04 in 10.0 mi West 12.7 mph - N/A   Clear
3:54 PM 63.0 °F - 33.1 °F 33% 30.05 in 10.0 mi West 11.5 mph 19.6 mph N/A   Clear
4:54 PM 60.1 °F - 32.0 °F 35% 30.08 in 10.0 mi WNW 9.2 mph - N/A   Clear
5:54 PM 57.0 °F - 34.0 °F 42% 30.11 in 10.0 mi WNW 9.2 mph - N/A   Clear
6:54 PM 55.9 °F - 34.0 °F 44% 30.13 in 10.0 mi WNW 6.9 mph - N/A   Clear
7:54 PM 53.1 °F - 34.0 °F 48% 30.14 in 10.0 mi West 8.1 mph - N/A   Clear
8:54 PM 51.1 °F - 34.0 °F 52% 30.17 in 10.0 mi West 5.8 mph - N/A   Clear
9:54 PM 50.0 °F - 34.0 °F 54% 30.19 in 10.0 mi West 6.9 mph - N/A   Clear
10:54 PM 50.0 °F - 34.0 °F 54% 30.20 in 10.0 mi West 6.9 mph - N/A   Clear
11:54 PM 50.0 °F - 34.0 °F 54% 30.22 in 10.0 mi WNW 15.0 mph 20.7 mph N/A   Clear